Regional Weather Roundup
Issued by NWS

Home | Current Version | Previous Version | Graphics & Text | Print | Product List | Glossary On
Versions: 1 2 3 4 5 6 7 8 9 10 11 12 13 14 15 16 17 18 19 20 21 22 23 24 25 26 27 28 29 30 31 32 33 34 35 36 37 38 39 40 41 42 43 44 45 46 47 48 49 50
000
ASUS45 KTFX 270604
RWRMT
MONTANA HOURLY WEATHER ROUNDUP
NATIONAL WEATHER SERVICE GREAT FALLS MT
1104 PM MST MON JAN 26 2015

NOTE: "FAIR" INDICATES FEW OR NO CLOUDS BELOW 12000 FEET WITH NO
SIGNIFICANT WEATHER AND/OR OBSTRUCTIONS TO VISIBILITY.

* THESE STATIONS ARE NOT UNDER NWS QUALITY CONTROL. THEY DO NOT
   REPORT WEATHER SUCH AS PRECIPITATION OR FOG.

MTZ001>007-043-270700-
WEST OF THE DIVIDE
CITY           SKY/WX    TMP DP  RH WIND       PRES   REMARKS
KALISPELL      FOG       21  19  92 CALM      30.02S VSB 1 1/4
MISSOULA       CLEAR     28  27  96 CALM      30.07S
BUTTE          PTCLDY    34  27  76 CALM      30.11F
MULLAN PASS    CLEAR     45  27  49 SW7       30.06S
* ANACONDA     CLEAR     46  25  44 S10        N/A
* ESSEX        N/A       29  27  92 SE3        N/A
* LINCOLN      N/A       46  26  46 SW3G14     N/A
* LOOKOUT PASS N/A       38  30  73 S2         N/A
* POLSON       N/A       45  29  54 S1         N/A
* RONAN APT    PTCLDY    30  30 100 N/A        N/A
* SEELEY LAKE  N/A       25  22  88 E1         N/A
* THOMP F APT  CLEAR     38  22  53 N5         N/A   WCI  34
$$

MTZ008-052>055-270700-
SOUTHWEST MONTANA
CITY           SKY/WX    TMP DP  RH WIND       PRES   REMARKS
BOZEMAN        PTCLDY    32  27  82 SE7       30.09S WCI  25
DILLON         PTCLDY    39  28  65 S12       30.12F WCI  32
* W YELLOWSTON CLEAR     18  16  92 N/A        N/A
* THREE FORKS  PTCLDY    28  28 100 N/A        N/A
* BOULDER HILL N/A       41  23  49 S6         N/A
* MONIDA PASS  N/A       28  25  89 N/A        N/A
* RAYNOLDS PAS N/A       29  18  63 SW8G17     N/A   WCI  21
* WHITEHALL    N/A       45  27  49 SW5G16     N/A
* WISE RIVER   N/A       30  26  85 N1         N/A
$$

MTZ009>010-012-014-046-048-049-054-270700-
EAST SLOPES AND CENTRAL MONTANA
CITY           SKY/WX    TMP DP  RH WIND       PRES   REMARKS
CUT BANK       PTCLDY    52  23  32 SW10      29.87S
GREAT FALLS    PTCLDY    50  28  43 SW16      29.93S
HELENA         PTCLDY    36  28  73 SW3       30.05R
MALMSTROM AFB  PTCLDY    50  30  46 SW20      29.92S
* DEARBORN     N/A       51  30  45 SE9        N/A
* EAST GLACIER N/A       52  21  30 W10G27     N/A
* MONARCH      N/A       52  19  27 SW4G11     N/A
* PENDROY      N/A       48  23  37 N/A        N/A
* ROGERS PASS  N/A       49  23  36 SE12G17    N/A
* SWEET GRASS  N/A       51  25  36 SW20       N/A
$$

MTZ011-013-016-021-035-040-045-047-050-051-270700-
NORTH CENTRAL MONTANA
CITY           SKY/WX    TMP DP  RH WIND       PRES   REMARKS
HAVRE          MOCLDY    45  34  65 SW20      29.82S
LEWISTOWN      CLOUDY    45  30  56 SW13      29.94S
* N BAR RANCH  CLEAR     46  25  44 VRB5G12   29.96R
* CHESTER      N/A       38  31  76 S3         N/A
* DENTON       N/A       49  29  46 SE11       N/A
* GEYSER       N/A       57  25  29 W18G24     N/A
* JUDITH GAP   N/A       45  26  47 SW16       N/A
* LOMA         N/A       48  31  52 W6         N/A
$$

MTZ017>020-022>027-061-062-270700-
NORTHEAST MONTANA
CITY           SKY/WX    TMP DP  RH WIND       PRES   REMARKS
GLASGOW        PTCLDY    34  30  85 E9        29.84S WCI  27
GLENDIVE       CLEAR     34  28  79 S7        29.89F WCI  28
JORDAN         CLEAR     30  27  89 W3        29.86S
SIDNEY         CLEAR     30  30 100 CALM      29.89S
WOLF POINT     PTCLDY    30  28  92 S3        29.86S
* BEAVER HILL  N/A       42  33  71 S12        N/A
* CIRCLE       N/A       41  34  76 W3         N/A
* LINDSAY DVD  N/A       49  30  48 SW6        N/A
* NAVAJO       N/A       38  33  82 N/A        N/A
* SACO         N/A       32  32 100 SE3        N/A
$$

MTZ028>042-056>058-270700-
SOUTHCENTRAL AND SOUTHEAST MONTANA
CITY           SKY/WX    TMP DP  RH WIND       PRES   REMARKS
BAKER          CLEAR     34  28  79 CALM      29.93S
BILLINGS       PTCLDY    52  27  38 W20       29.99F
LIVINGSTON     PTCLDY    57  25  29 W29G40    30.05R
MILES CITY     CLEAR     41  30  65 S7        29.91S
* LAUREL APT   PTCLDY    45  25  45 SW7        N/A
* ROUNDUP APT  PTCLDY    46  27  48 N/A        N/A
* ALZADA       N/A       40  31  70 NW4        N/A
* HYSHAM       N/A       50  24  36 W8         N/A
* LAME DEER    N/A       57  24  28 SW7        N/A
* REED POINT   N/A       31  30  96 N/A        N/A
$$

REGIONAL REPORTS...DAKOTAS
CITY           SKY/WX    TMP DP  RH WIND       PRES   REMARKS
WILLISTON      PTCLDY    28  27  96 CALM      29.88S
DICKINSON      PTCLDY    36  30  79 S6        29.88F WCI  31
CROSBY         CLEAR     32  32 100 S9        29.87S WCI  24
WATFORD CITY   CLEAR     30  28  92 CALM      29.87S
BISMARCK       PTCLDY    30  28  92 CALM      29.97S
GRAND FORKS    FOG       25  25 100 SE6       30.03R WCI  18
FARGO          MOCLDY    27  23  85 NE6       30.03R WCI  20
BUFFALO SD     CLEAR     45  32  60 W7        29.89R
RAPID CITY     CLEAR     34  27  76 W3        29.98R
$$

REGIONAL REPORTS...WYOMING/IDAHO/WASHINGTON
CITY           SKY/WX    TMP DP  RH WIND       PRES   REMARKS
GILLETTE       CLEAR     48  27  44 SW15      30.01F
SHERIDAN       PTCLDY    43  25  49 SW3       30.00S
CODY           PTCLDY    39  28  65 SE6       30.12S WCI  35
YELLOWSTONE LA PTCLDY    14  10  84 CALM      30.32S
SALMON         CLOUDY   N/A N/A N/A CALM      30.21F VSB M1/4
MULLAN PASS    CLEAR     45  27  49 SW7       30.06S
SAND POINT     FOG      N/A N/A N/A CALM      30.03S VSB M1/4
SPOKANE        PTCLDY    36  36 100 NE3       29.98F

$$



USA.gov is the U.S. government's official web portal to all federal, state and local government web resources and services.